Location: Norderney
(53.7000°N, 7.1500°E)
Time: 17:43:33
(UTC+02:00)

ACS3 Solar Sail - Pass Details

Date: 16 August 2024
Orbit: 980 x 1030 km, 97.4° (Epoch: 08 September)

Event Time Altitude Azimuth Distance (km) Brightness Sun altitude
Exits shadow 23:28:27 - 207° (SSW) 3,692 4.5 -17.7°
Reaches altitude 10° 23:31:17 10° 220° (SW) 2,801 4.0 -17.9°
Maximum altitude 23:36:23 25° 274° (W) 1,939 3.7 -18.3°
Drops below altitude 10° 23:41:35 10° 328° (NNW) 2,847 5.5 -18.7°
Sets 23:44:38 0° 341° (NNW) 3,811 6.5 -18.9°
